TimeCDT,TemperatureF,Dew PointF,Humidity,Sea Level PressureIn,VisibilityMPH,Wind Direction,Wind SpeedMPH,Gust SpeedMPH,PrecipitationIn,Events,Conditions,WindDirDegrees,DateUTC
1:00 AM,8,6,85,29.80,15,West,2.3,,,,Overcast,260,2012-10-13 06:00:00
1:00 AM,8.6,5.0,85,29.80,15.0,WNW,3.5,-,N/A,,Overcast,290,2012-10-13 06:00:00
2:00 AM,6.8,5.0,92,29.78,15.0,NE,2.3,-,N/A,,Overcast,40,2012-10-13 07:00:00
3:00 AM,10.4,6.8,85,29.80,15.0,Calm,Calm,-,N/A,,Overcast,0,2012-10-13 08:00:00
4:00 AM,8.6,5.0,85,29.78,15.0,Calm,Calm,-,N/A,,Overcast,0,2012-10-13 09:00:00
6:00 AM,8.6,5.0,85,29.78,15.0,Calm,Calm,-,N/A,,Overcast,0,2012-10-13 11:00:00
7:00 AM,9,6,79,29.79,15,Calm,Calm,,,,Overcast,,2012-10-13 12:00:00
7:00 AM,8.6,5.0,85,29.79,15.0,Calm,Calm,-,N/A,,Overcast,0,2012-10-13 12:00:00
9:00 AM,5.0,-0.4,78,29.80,40.0,SSE,3.5,-,N/A,,Overcast,150,2012-10-13 14:00:00
10:00 AM,3.2,-2.2,78,29.80,40.0,NE,2.3,-,N/A,,Overcast,50,2012-10-13 15:00:00
11:00 AM,6.8,1.4,79,29.81,40.0,Calm,Calm,-,N/A,,Overcast,0,2012-10-13 16:00:00
12:00 PM,8.6,5.0,85,29.83,40.0,SE,4.6,-,N/A,,Overcast,130,2012-10-13 17:00:00
1:00 PM,7,4,81,29.83,37,Calm,Calm,,,,Mostly Cloudy,,2012-10-13 18:00:00
1:00 PM,6.8,3.2,85,29.83,40.0,Calm,Calm,-,N/A,,Mostly Cloudy,0,2012-10-13 18:00:00
2:00 PM,6.8,-2.2,67,29.85,40.0,East,2.3,-,N/A,,Scattered Clouds,80,2012-10-13 19:00:00
4:00 PM,1.4,-5.8,72,29.88,40.0,Calm,Calm,-,N/A,,Partly Cloudy,0,2012-10-13 21:00:00
5:00 PM,3.2,-4.0,72,29.88,40.0,Calm,Calm,-,N/A,,Partly Cloudy,0,2012-10-13 22:00:00
6:00 PM,-2.2,-9.4,71,29.90,40.0,SSE,3.5,-,N/A,,Partly Cloudy,150,2012-10-13 23:00:00
8:00 PM,-2.2,-7.6,78,29.89,15.0,Calm,Calm,-,N/A,,Partly Cloudy,0,2012-10-14 01:00:00
9:00 PM,-5.8,-11.2,77,29.91,15.0,West,3.5,-,N/A,,Partly Cloudy,260,2012-10-14 02:00:00
10:00 PM,-4.0,-9.4,78,29.90,15.0,Calm,Calm,-,N/A,,Clear,0,2012-10-14 03:00:00